User: anonymous   Login
Location: Unspecified
(0.0000°N, 0.0000°E)
Time: 09:02:57
(UTC+00:00)
Language:

DOVE 2 - Orbit

View from above orbital plane
View from above orbital plane
View from above satellite
View from above satellite

Ground track
Ground track

The orbit data is extracted from the following two-line orbital elements,

1 39132U 13015C   23331.49226936  .00009851  00000-0  50161-3 0  9990
2 39132  64.8727 345.4646 0013663 236.3445 123.6378 15.17178896583089
Epoch (UTC): 27 November 2023 11:48:52
Eccentricity: 0.0013663
inclination: 64.8727°
perigee height: 505 km
apogee height: 524 km
right ascension of ascending node: 345.4646°
argument of perigee: 236.3445°
revolutions per day: 15.17178896
mean anomaly at epoch: 123.6378°
orbit number at epoch: 58308

The dashed part of the orbit path shows where the satellite is in the earth's shadow,  

DLR